STARLINK-3133, 49416

Orbit data source: Space-Track

STARLINK-3133, 49416 is a payload satellite owned by SpaceX/Seattle (US) in LEO that was launched on Sat, 13 Nov 2021 UTC via an FALCON 9 launch vehicle from the Air Force Eastern Test Range (AFETR). Payload-class satellites include a variety of spacecraft equipped with specific instruments for various scientific and technological missions. These include communications satellites like Starlink; space stations such as the ISS; scientific satellites like the Hubble; Earth observation satellites from companies like Planet Labs, Umbra, and HawkEye 360; GPS; miniature CubeSats for education and research; and military/defense satellites.

Loading next visibility...
Identifier
49416, 2021-104J
Orbit
LEO
Country
Flag of USUS
Related business
Manufacturer
SpaceX/Seattle
Mission
Operational Commercial Communications
Bus & Motor
STARLINK, Unknown motor
Mass
290 kg wet, ~270 kg dry
Launch date (UTC)
2021-11-13 (5 years ago)
Launch vehicle
FALCON 9
Launch site
Air Force Eastern Test Range (AFETR)
Object type
Payload
Rocket body
Debris
Shape & HBR
Box + 1 Pan, 10.1 m
Radar Cross Section
13.562 m², Large (>1 m²)

Expand to show TLE details & history
Last TLE update: 1 week ago

TLE from 1 week ago
0 STARLINK-3133
1 49416U 21104J   26154.75409805  .00000934  00000-0  76791-4 0  9998
2 49416  53.1816 202.7378 0000808  80.5135 279.5948 15.08831569251623
Epoch: 2026-06-03T18:05Z
TLE epoch observation values (Epoch: 2026-06-03T18:05:54.071Z)
Latitude
-0.00002°
Longitude
39.05431°
Altitude
540.57 km
Speed
7.593 km/s
True Right ascension
13h 30m 57s
True Declination
0° 00' 00"
Sunlit
Object was in full shadow at epoch
Visualization orbit readout
Latitude
Unknown
Longitude
Unknown
Altitude
Unknown
Speed
Unknown
Apparent Right ascension
Unknown
Apparent Declination
Unknown
Sunlit
N/A
Visualization observer readout
Local Sidereal Time
13:26:31
Azimuth
Unknown
Elevation
Unknown
Doppler factor
Unknown
Orbital elements
Apogee altitude
540.579 km
Perigee altitude
539.461 km
Semi-major axis
6,918.157 km
Eccentricity
0.00008
Inclination
53.1816°
RAAN
202.7378°
Arg. of periapsis
80.5135°
True anomaly
279.58567°
Mean anomaly
279.5948°
Eccentric anomaly
279.59024°
Mean motion
3.77188 °/min
Orbital period
95.44 mins
BSTAR
0.000076791
Loading maneuver chart data...
Computing Atmospheric mass density...
Loading historical data...
Loading historical data...
Loading historical data...
Loading historical data...
Loading historical data...
Loading historical data...
Loading historical data...

Documentation

Showing up to 5 results
|